Location: Solon
(41.3849°N, 81.4081°W)
Time: 02:46:21
(UTC-04:00)

CZ-2C R/B - Visible Passes

Search period start: 28 July 2017 00:00
Search period end: 07 August 2017 00:00
Orbit: 703 x 909 km, 98.2° (Epoch: 26 July)

Date Brightness Start Highest point End Pass type
(mag) Time Alt. Az. Time Alt. Az. Time Alt. Az.
28 Jul 4.2 01:26:43 32° WNW 01:26:43 32° WNW 01:30:11 10° NNW visible
28 Jul 4.9 23:20:37 16° ENE 23:21:21 16° ENE 23:24:18 10° NNE visible
29 Jul 3.5 01:01:41 52° NW 01:01:41 52° NW 01:05:38 10° NNW visible
30 Jul 3.2 00:36:40 64° NNE 00:36:40 64° NNE 00:40:50 10° N visible
30 Jul 5.5 02:17:45 10° WNW 02:17:45 10° WNW 02:17:50 10° WNW visible
31 Jul 3.6 00:11:39 44° NE 00:11:39 44° NE 00:15:50 10° N visible
31 Jul 5.0 01:52:43 18° WNW 01:52:43 18° WNW 01:54:51 10° NW visible
31 Jul 4.3 23:46:38 27° ENE 23:46:38 27° ENE 23:50:34 10° N visible
01 Aug 4.4 01:27:42 29° WNW 01:27:42 29° WNW 01:30:43 10° NNW visible
01 Aug 4.8 23:21:37 16° ENE 23:21:59 16° ENE 23:24:54 10° NNE visible
02 Aug 3.8 01:02:41 44° NW 01:02:41 44° NW 01:06:11 10° NNW visible
03 Aug 3.5 00:37:40 55° N 00:37:40 55° N 00:41:24 10° N visible
04 Aug 3.7 00:12:38 42° NE 00:12:38 42° NE 00:16:25 10° N visible
04 Aug 5.1 01:53:42 16° WNW 01:53:42 16° WNW 01:55:20 10° NW visible
04 Aug 4.3 23:47:37 27° ENE 23:47:37 27° ENE 23:51:10 10° N visible
05 Aug 4.6 01:28:41 25° WNW 01:28:41 25° WNW 01:31:15 10° NNW visible
05 Aug 4.8 23:22:36 16° ENE 23:22:36 16° ENE 23:25:31 10° NNE visible
06 Aug 4.1 01:03:39 38° NW 01:03:39 38° NW 01:06:45 10° NNW visible
